User: anonymous   Login
Location: Arrecife
(10.5858°N, 67.0742°W)
Time: 19:18:27
(UTC+00:00)
Language:

Envisat - Orbit

View from above orbital plane
View from above orbital plane
View from above satellite
View from above satellite

Ground track
Ground track

The orbit data is extracted from the following two-line orbital elements,

1 27386U 02009A   24062.54613731  .00000215  00000-0  83950-4 0  9998
2 27386  98.2693  27.4212 0001354  90.2579  24.2809 14.38511664153179
Epoch (UTC): 02 March 2024 13:06:26
Eccentricity: 0.0001354
inclination: 98.2693°
perigee height: 762 km
apogee height: 764 km
right ascension of ascending node: 27.4212°
argument of perigee: 90.2579°
revolutions per day: 14.38511664
mean anomaly at epoch: 24.2809°
orbit number at epoch: 15317

The dashed part of the orbit path shows where the satellite is in the earth's shadow,  

DLR